VA3ECP Weather Reports


Display with metric or nautical units.
time (UTC)temp
F
wind
direction
speed
MPH
gust
MPH
rain 1hr
in
rain 24hr
in
rain mn
in
humidity
%
barometer
mb
20260504034626 51 162 3.0 5.0 0.00 0.00 0.00 65 1006.4
20260504032523 51 23 2.0 6.0 0.00 0.00 0.00 65 1006.5
20260504030521 51 4 7.0 11.0 0.00 0.00 0.00 63 1006.6
20260504025520 51 276 5.0 9.0 0.00 0.00 0.00 60 1006.6
20260504024527 51 243 5.0 15.0 0.00 0.00 0.00 60 1006.7
20260504023527 51 203 0.0 3.0 0.00 0.00 0.00 59 1006.8
20260504022529 52 69 3.0 11.0 0.00 0.00 0.00 57 1006.9
20260504021525 52 145 4.0 11.0 0.00 0.00 0.00 55 1006.8
20260504020532 52 92 2.0 11.0 0.00 0.00 0.00 53 1006.8
20260504015522 52 0.0 0.0 0.00 0.00 0.00 53 1006.6
20260504014534 53 0.0 0.0 0.00 0.00 0.00 52 1006.6
20260504013522 53 1.0 6.0 0.00 0.00 0.00 52 1006.7
20260504012527 53 131 1.0 6.0 0.00 0.00 0.00 51 1006.7
20260504011525 53 248 1.0 6.0 0.00 0.00 0.00 51 1006.6
20260504010521 53 24 5.0 14.0 0.00 0.00 0.00 51 1006.6
20260504005519 53 20 5.0 11.0 0.00 0.00 0.00 49 1006.4
20260504004522 54 37 4.0 11.0 0.00 0.00 0.00 48 1006.4
20260504003530 54 115 6.0 20.0 0.00 0.00 0.00 46 1006.3
20260504002521 54 171 1.0 9.0 0.00 0.00 0.00 45 1006.2
20260504001529 54 0.0 0.0 0.00 0.00 0.00 45 1006.0
20260504000519 55 168 3.0 12.0 0.00 0.00 0.00 43 1006.1
20260503235528 56 113 4.0 12.0 0.00 0.00 0.00 42 1006.1
20260503234533 56 352 2.0 9.0 0.00 0.00 0.00 41 1006.0
20260503233522 56 263 1.0 6.0 0.00 0.00 0.00 39 1005.9
20260503232530 57 269 1.0 6.0 0.00 0.00 0.00 38 1006.0
20260503231520 57 64 4.0 9.0 0.00 0.00 0.00 38 1006.0
20260503230521 57 128 4.0 11.0 0.00 0.00 0.00 36 1006.0
20260503225521 57 0.0 0.0 0.00 0.00 0.00 36 1006.0
20260503224545 58 61 5.0 11.0 0.00 0.00 0.00 35 1006.0
20260503222523 58 248 7.0 15.0 0.00 0.00 0.00 35 1006.1
20260503221531 59 240 4.0 9.0 0.00 0.00 0.00 35 1006.2
20260503220521 59 222 3.0 9.0 0.00 0.00 0.00 35 1006.2
20260503215522 59 43 5.0 11.0 0.00 0.00 0.00 35 1006.2
20260503214529 59 40 4.0 9.0 0.00 0.00 0.00 35 1006.2
20260503212522 59 277 3.0 9.0 0.00 0.00 0.00 35 1006.3
20260503211519 60 241 9.0 15.0 0.00 0.00 0.00 34 1006.3
20260503210522 60 80 5.0 11.0 0.00 0.00 0.00 34 1006.4
20260503205523 60 240 5.0 12.0 0.00 0.00 0.00 35 1006.4
20260503204624 60 225 1.0 8.0 0.00 0.00 0.00 36 1006.6
20260503203529 60 26 9.0 14.0 0.00 0.00 0.00 35 1006.7
20260503202546 60 111 10.0 17.0 0.00 0.00 0.00 35 1006.8
20260503201522 61 104 4.0 9.0 0.00 0.00 0.00 35 1006.8
20260503200524 63 83 7.0 14.0 0.00 0.00 0.00 36 1006.8
20260503195524 60 126 6.0 17.0 0.00 0.00 0.00 37 1007.0
20260503194642 63 105 3.0 9.0 0.00 0.00 0.00 36 1007.2
20260503193519 60 30 3.0 9.0 0.00 0.00 0.00 37 1007.3
20260503192522 62 274 10.0 15.0 0.00 0.00 0.00 36 1007.6
20260503191522 60 173 7.0 14.0 0.00 0.00 0.00 38 1007.7
20260503190524 60 157 3.0 8.0 0.00 0.00 0.00 38 1007.8
20260503185525 62 161 6.0 12.0 0.00 0.00 0.00 37 1007.8
20260503184526 61 44 6.0 14.0 0.00 0.00 0.00 38 1008.0
20260503183522 61 88 4.0 9.0 0.00 0.00 0.00 39 1008.2
20260503182519 61 96 8.0 17.0 0.00 0.00 0.00 38 1008.4
20260503181519 61 144 9.0 12.0 0.00 0.00 0.00 38 1008.4
20260503180531 62 153 6.0 20.0 0.00 0.00 0.00 38 1008.5
20260503175527 59 126 8.0 14.0 0.00 0.00 0.00 39 1008.7
20260503174527 58 150 5.0 11.0 0.00 0.00 0.00 40 1008.9
20260503173521 59 254 6.0 14.0 0.00 0.00 0.00 39 1009.0
20260503172523 58 282 3.0 14.0 0.00 0.00 0.00 42 1009.1
20260503171530 56 243 3.0 9.0 0.00 0.00 0.00 40 1009.3
20260503170520 58 103 7.0 15.0 0.00 0.00 0.00 41 1009.4
20260503090139 39 0.0 0.0 0.00 0.00 0.00 74 1011.8
20260503081125 39 293 0.0 3.0 0.00 0.00 0.00 73 1012.0
20260503072024 40 0.0 3.0 0.00 0.00 0.00 73 1012.0
20260503071023 40 293 0.0 3.0 0.00 0.00 0.00 72 1012.0
20260503055023 41 315 1.0 5.0 0.00 0.00 0.00 71 1012.3
20260503054030 41 0.0 0.0 0.00 0.00 0.00 70 1012.4
20260503053020 41 0.0 0.0 0.00 0.00 0.00 69 1012.4
20260503052020 41 0.0 0.0 0.00 0.00 0.00 69 1012.5
20260503051025 41 274 1.0 8.0 0.00 0.00 0.00 69 1012.5
20260503045026 41 360 0.0 3.0 0.00 0.00 0.00 70 1012.6
20260503044026 41 0.0 0.0 0.00 0.00 0.00 70 1012.7
20260503043020 41 0.0 0.0 0.00 0.00 0.00 70 1012.7
20260503042020 42 0.0 0.0 0.00 0.00 0.00 71 1012.8
20260503041028 42 0.0 3.0 0.00 0.00 0.00 70 1012.8
20260503040031 42 0.0 0.0 0.00 0.00 0.00 70 1012.8